This is the latest recevied weather packets stored in our database for station/object K3CHZ. If no packets are shown the sender has not sent any weather packets the latest 10 day(s).
| Time | Temp. | Humidity | Pressure | Rain* | Wind** | Luminosity | Snow |
|---|---|---|---|---|---|---|---|
| 1778032036 | 22.78° C | 40% | 1010.3 hPa | 0 mm | - | - | - |
| 1778031735 | 22.78° C | 39% | 1010.3 hPa | 0 mm | - | - | - |
| 1778031435 | 23.33° C | 39% | 1010.3 hPa | 0 mm | - | - | - |
| 1778031135 | 23.33° C | 38% | 1010.2 hPa | 0 mm | - | - | - |
| 1778030835 | 23.33° C | 38% | 1010 hPa | 0 mm | - | - | - |
| 1778030538 | 23.33° C | 37% | 1010 hPa | 0 mm | - | - | - |
| 1778030238 | 23.33° C | 35% | 1010 hPa | 0 mm | - | - | - |
| 1778029938 | 23.89° C | 35% | 1010 hPa | 0 mm | - | - | - |
| 1778029638 | 23.89° C | 35% | 1010 hPa | 0 mm | - | - | - |
| 1778029338 | 23.89° C | 35% | 1009.9 hPa | 0 mm | - | - | - |
| 1778029039 | 23.89° C | 34% | 1009.9 hPa | 0 mm | - | - | - |
| 1778028739 | 23.89° C | 34% | 1009.7 hPa | 0 mm | - | - | - |
| 1778028439 | 23.89° C | 34% | 1009.7 hPa | 0 mm | - | - | - |
| 1778028138 | 24.44° C | 34% | 1009.7 hPa | 0 mm | - | - | - |
| 1778027838 | 23.89° C | 34% | 1009.6 hPa | 0 mm | - | - | - |
| 1778027539 | 23.89° C | 34% | 1009.6 hPa | 0 mm | - | - | - |
| 1778027238 | 23.89° C | 34% | 1009.6 hPa | 0 mm | - | - | - |
| 1778026937 | 24.44° C | 34% | 1009.5 hPa | 0 mm | - | - | - |
| 1778026640 | 24.44° C | 33% | 1009.5 hPa | 0 mm | - | - | - |
| 1778026338 | 24.44° C | 33% | 1009.4 hPa | 0 mm | - | - | - |
| 1778026038 | 25° C | 33% | 1009.2 hPa | 0 mm | - | - | - |
| 1778025738 | 25° C | 32% | 1009.3 hPa | 0 mm | - | - | - |
| 1778025438 | 25° C | 32% | 1009.3 hPa | 0 mm | - | - | - |
| 1778025140 | 25° C | 32% | 1009.4 hPa | 0 mm | - | - | - |
| 1778024839 | 25° C | 31% | 1009.3 hPa | 0 mm | - | - | - |
* Rain latest hour (hover to see other rain measurements)
** Current wind speed in m/s (hover to see current wind gust speed)